x

Frying Pan Shoals, Nc Buoy (41013) Wave Buoy

3:50 - Tue 19th Sep 2017 All times are EDT. -4 hours from GMT.

  • Sig Wave height 3.6ft
  • Swell Direction
  • Peak Period 11s
  • Average Period 6s
  • Wind
    11mph, 16mph gusts
  • Sea Temp 82°f
  • Luft Temp 78°f
  • Sea Pressure 1012.6mb
  • Frying Pan Shoals, Nc Buoy
  • Frying Pan Shoals, Nc Buoy

More Historic Weather Station data

Upgrade to MSW Pro to gain access to the past 30 days of data for over 8000 Wavebouys and Weather Stations around the globe.

Join

Comparision Forecast

View Surf forecast
   
Di 09/19 3:50 3.5ft 11s 6s 11 16 mph 1012.6mb 82f 78f
3:40 3.5ft  -  6s 11 16 mph 1012.6mb 82f 78f
3:30  -   -   -  11 18 mph 1012.8mb 82f 78f
3:20  -   -   -  11 13 mph 1012.8mb 82f 77f
3:10  -   -   -  9 11 mph 1013mb 82f 77f
3:00  -   -   -  11 13 mph 1013.1mb 82f 77f
2:50 3.5ft 12s 5s 11 13 mph 1013.2mb 82f 76f
2:40 3.5ft  -  5s 11 13 mph 1013.3mb 82f 76f
2:30  -   -   -  11 13 mph 1013.4mb 82f 76f
2:20  -   -   -  11 13 mph 1013.4mb - 76f
2:10  -   -   -  11 13 mph 1013.6mb 82f 75f
2:00  -   -   -  11 16 mph 1013.7mb 82f 75f
1:50 4.5ft 12s 5s 11 16 mph 1013.6mb 82f 75f
1:40  -   -   -  11 18 mph 1013.6mb 82f 75f
1:30  -   -   -  9 16 mph 1013.7mb 82f 75f
1:20  -   -   -  9 13 mph 1013.9mb 81f 75f
1:10  -   -   -  9 11 mph 1014.1mb 81f 75f
1:00  -   -   -  9 13 mph 1014.1mb 81f 75f
12:50 4.5ft 12s 5s 11 13 mph 1014.1mb - 75f
12:40 4.5ft  -  5s 9 13 mph 1014.2mb 81f 75f
12:30  -   -   -  11 13 mph 1014.5mb - 75f
12:20  -   -   -  11 13 mph 1014.5mb 81f 75f
12:10  -   -   -  11 16 mph 1014.4mb 81f 74f
12:00  -   -   -  13 16 mph 1014.4mb 81f 74f
11:50 4.5ft 10s 6s 13 16 mph 1014.4mb 81f 74f
11:40  -   -   -  13 16 mph 1014.4mb 81f 74f
11:30  -   -   -  13 16 mph 1014.5mb 81f 74f
11:20  -   -   -  13 16 mph 1014.5mb 81f 74f
11:10  -   -   -  13 16 mph 1014.7mb 81f 74f
11:00  -   -   -  13 16 mph 1014.7mb 81f 74f
10:50 4.5ft 11s 5s 13 16 mph 1014.7mb 81f 74f
10:40 4.5ft  -  5s 13 16 mph 1014.6mb 81f 74f
10:30  -   -   -  13 16 mph 1014.4mb 81f 74f
10:20  -   -   -  13 16 mph 1014.5mb 81f 74f
10:10  -   -   -  13 16 mph 1014.5mb 81f 74f
10:00  -   -   -  13 18 mph 1014.4mb 81f 73f
9:50 5ft 13s 6s 16 20 mph 1014.3mb 81f 73f
9:40  -   -   -  16 18 mph 1014.2mb 81f 73f
9:30  -   -   -  13 18 mph 1014.2mb 81f 74f
9:20  -   -   -  13 18 mph 1014.1mb 81f 73f
9:10  -   -   -  13 18 mph 1014.1mb 81f 74f
9:00  -   -   -  13 18 mph 1013.9mb 81f 73f
8:50 4.5ft 12s 6s 13 18 mph 1013.7mb 81f 73f
8:40 4.5ft  -  6s 13 18 mph 1013.6mb 81f 74f
8:30  -   -   -  16 18 mph 1013.5mb - 74f
8:20  -   -   -  16 18 mph 1013.5mb 81f 74f
8:10  -   -   -  16 20 mph 1013.4mb 81f 74f
8:00  -   -   -  16 18 mph 1013.6mb 81f 74f
7:50 5ft 12s 6s 16 20 mph 1013.6mb 81f 74f
7:40 5ft  -  6s 16 20 mph 1013.4mb 81f 74f
7:30  -   -   -  16 18 mph 1013.3mb 81f 74f
7:20  -   -   -  16 20 mph 1013.1mb 81f 74f
7:10  -   -   -  16 20 mph 1013.1mb 81f 74f
7:00  -   -   -  16 20 mph 1013.1mb 82f 75f
6:50 5ft 13s 6s 16 20 mph 1013mb 81f 75f
6:40 5ft  -  6s 16 20 mph 1012.9mb 82f 75f
6:30  -   -   -  16 20 mph 1012.9mb 81f 75f
6:20  -   -   -  16 20 mph 1012.8mb - 75f
6:10  -   -   -  16 20 mph 1012.7mb 81f 75f
6:00  -   -   -  16 20 mph 1012.6mb 81f 75f
5:50 5ft 10s 6s 13 18 mph 1012.5mb 81f 75f
5:40 5ft  -  6s 13 18 mph 1012.4mb 81f 76f
5:30  -   -   -  13 20 mph 1012.2mb 81f 76f
5:20  -   -   -  13 18 mph 1012.1mb 81f 76f
5:10  -   -   -  13 18 mph 1012.1mb 81f 76f
5:00  -   -   -  13 18 mph 1012mb 81f 76f
4:50 5.5ft 10s 6s 11 16 mph 1011.9mb 81f 76f
4:40 5.5ft  -  6s 13 16 mph 1012mb 81f 76f
4:30  -   -   -  13 18 mph 1011.9mb 81f 76f
4:20  -   -   -  13 16 mph 1011.9mb 81f 76f
4:10  -   -   -  11 16 mph 1011.9mb 81f 76f
4:00  -   -   -  13 16 mph 1011.8mb 81f 76f
3:50 5.5ft 11s 6s 13 16 mph 1011.8mb 81f 76f
3:40 5.5ft  -  6s 13 16 mph 1011.8mb 81f 76f
3:30  -   -   -  11 16 mph 1011.9mb 81f 76f
3:20  -   -   -  13 16 mph 1012.1mb 81f 76f
3:10  -   -   -  16 18 mph 1012mb 81f 76f
3:00  -   -   -  16 20 mph 1012.1mb 81f 76f
2:50 5.5ft 11s 6s 16 20 mph 1012.2mb 81f 77f
2:40  -   -   -  18 22 mph 1012.4mb 81f 77f
2:30  -   -   -  16 20 mph 1012.5mb 81f 77f
2:20  -   -   -  16 20 mph 1012.5mb 81f 77f
2:10  -   -   -  16 20 mph 1012.5mb 81f 77f
2:00  -   -   -  16 20 mph 1012.5mb 81f 77f
1:50 5.5ft 11s 6s 16 20 mph 1012.6mb - 77f
1:40 5.5ft  -  6s 16 20 mph 1012.5mb 81f 77f
1:30  -   -   -  18 22 mph 1012.5mb - 77f
1:20  -   -   -  18 22 mph 1012.6mb 81f 77f
1:10  -   -   -  18 22 mph 1012.6mb 81f 77f
1:00  -   -   -  20 22 mph 1012.7mb - 78f
12:50 6ft 10s 6s 20 25 mph 1012.8mb 81f 78f
12:40  -   -   -  20 25 mph 1012.8mb 81f 78f
12:30  -   -   -  20 25 mph 1012.9mb - 78f
12:20  -   -   -  18 22 mph 1013mb 81f 78f
12:10  -   -   -  20 22 mph 1013.1mb 81f 78f
12:00  -   -   -  18 22 mph 1013.2mb 81f 78f
Mo 09/18 11:50 5.5ft 12s 6s 18 22 mph 1013.3mb 81f 78f
11:40 5.5ft  -  6s 20 22 mph 1013.3mb 81f 78f
11:30  -   -   -  18 22 mph 1013.3mb 81f 78f
11:20  -   -   -  18 25 mph 1013.4mb 81f 79f
11:10  -   -   -  18 22 mph 1013.4mb 81f 78f
11:00  -   -   -  18 22 mph 1013.4mb 81f 79f
10:50 5ft 12s 6s 18 22 mph 1013.3mb 81f 79f
10:40 5ft  -  6s 20 25 mph 1013.3mb 81f 79f
10:30  -   -   -  20 25 mph 1013.4mb 81f 79f
10:20  -   -   -  20 25 mph 1013.4mb 81f 79f
10:10  -   -   -  18 22 mph 1013.4mb 82f 79f
10:00  -   -   -  18 22 mph 1013.4mb 82f 79f
9:50 5ft 11s 6s 18 22 mph 1013.3mb 82f 79f
9:40 5ft  -  6s 18 20 mph 1013.2mb 82f 79f
9:30  -   -   -  18 20 mph 1013.2mb 82f 79f
9:20  -   -   -  16 20 mph 1013.2mb - 79f
9:10  -   -   -  16 20 mph 1013.2mb 82f 79f
9:00  -   -   -  16 18 mph 1013.3mb - 79f
8:50 6ft 11s 6s 16 20 mph 1013.2mb 82f 79f
8:40 6ft  -  6s 16 20 mph 1013mb 82f 79f
8:30  -   -   -  16 20 mph 1012.9mb 82f 79f
8:20  -   -   -  16 20 mph 1012.8mb 82f 80f
8:10  -   -   -  16 20 mph 1012.7mb 82f 80f
8:00  -   -   -  16 20 mph 1012.6mb 82f 80f
7:50 5.5ft 12s 6s 16 20 mph 1012.6mb 82f 80f
7:40  -   -   -  16 20 mph 1012.5mb 82f 80f
7:30  -   -   -  16 18 mph 1012.5mb 82f 80f
7:20  -   -   -  16 20 mph 1012.4mb 82f 80f
7:10  -   -   -  16 20 mph 1012.4mb 82f 80f
7:00  -   -   -  16 18 mph 1012.3mb 82f 80f
6:50 6ft 12s 7s 16 18 mph 1012.2mb 82f 79f
6:40 6ft  -  7s 16 20 mph 1012.2mb 82f 79f
6:30  -   -   -  16 20 mph 1012.2mb 82f 80f
6:20  -   -   -  16 20 mph 1012.1mb 82f 80f
6:10  -   -   -  16 20 mph 1012.2mb 82f 79f
6:00  -   -   -  16 20 mph 1012.3mb 82f 79f
5:50 6.5ft 12s 7s 16 20 mph 1012.3mb 82f 79f
5:40 6.5ft  -  7s 16 22 mph 1012.3mb 82f 79f
5:30  -   -   -  16 20 mph 1012.4mb 82f 79f
5:20  -   -   -  16 20 mph 1012.5mb 82f 79f
5:10  -   -   -  16 20 mph 1012.7mb 82f 78f
5:00  -   -   -  16 20 mph 1012.7mb 82f 78f
4:50 8.5ft 13s 8s 18 20 mph 1012.7mb 82f 78f
4:40 8.5ft  -  8s 18 22 mph 1012.8mb 82f 78f
4:30  -   -   -  16 25 mph 1013mb 82f 78f
4:20  -   -   -  18 22 mph 1013mb 82f 78f
4:10  -   -   -  18 22 mph 1013.1mb 82f 78f
4:00  -   -   -  18 22 mph 1013.1mb 82f 78f
3:50 8ft 12s 8s 18 20 mph 1013.2mb 82f 78f
3:40  -   -   -  18 22 mph 1013.3mb 82f 78f
3:30  -   -   -  18 25 mph 1013.3mb 82f 77f
3:20  -   -   -  16 22 mph 1013.4mb 82f 77f
3:10  -   -   -  16 20 mph 1013.5mb 82f 77f
3:00  -   -   -  16 20 mph 1013.6mb 82f 77f
2:50 8ft 11s 7s 18 22 mph 1013.6mb 82f 77f
2:40  -   -   -  18 22 mph 1013.7mb 82f 77f
2:30  -   -   -  18 22 mph 1013.7mb 82f 77f
2:20  -   -   -  18 22 mph 1013.8mb 82f 77f
2:10  -   -   -  18 22 mph 1013.9mb 82f 77f
2:00  -   -   -  18 22 mph 1013.9mb 82f 77f
1:50 8.5ft 13s 7s 18 25 mph 1014mb 81f 77f
1:40 8.5ft  -  7s 20 25 mph 1013.9mb 81f 77f
1:30  -   -   -  18 22 mph 1014mb 81f 76f
1:20  -   -   -  18 22 mph 1014.1mb 81f 76f
1:10  -   -   -  18 25 mph 1014.2mb 81f 76f
1:00  -   -   -  18 22 mph 1014.3mb 81f -
12:50 7ft 12s 6s 18 22 mph 1014.5mb 81f 76f
12:40 7ft  -  6s 18 22 mph 1014.4mb 81f 76f
12:30  -   -   -  18 22 mph 1014.3mb 81f 76f
12:20  -   -   -  18 22 mph 1014.3mb 81f 76f
12:10  -   -   -  18 22 mph 1014.5mb 81f 76f
12:00  -   -   -  16 22 mph 1014.5mb 81f 76f
11:50 8.5ft 12s 7s 18 22 mph 1014.6mb 81f 76f
11:40  -   -   -  18 22 mph 1014.6mb 81f 76f
11:30  -   -   -  18 22 mph 1014.5mb 81f 76f
11:20  -   -   -  18 22 mph 1014.6mb 81f 76f
11:10  -   -   -  18 25 mph 1014.7mb 81f 76f
11:00  -   -   -  18 22 mph 1014.6mb 81f 76f
10:50 8ft 12s 7s 18 25 mph 1014.7mb 81f 76f
10:40 8ft  -  7s 18 22 mph 1014.6mb 81f 76f
10:30  -   -   -  18 25 mph 1014.6mb 81f 76f
10:20  -   -   -  18 22 mph 1014.5mb 81f 76f
10:10  -   -   -  18 22 mph 1014.5mb 81f 76f
10:00  -   -   -  18 22 mph 1014.5mb 81f 76f
9:50 8ft 12s 7s 18 25 mph 1014.4mb 81f 76f
9:40  -   -   -  20 25 mph 1014.4mb 81f 76f
9:30  -   -   -  20 25 mph 1014.4mb - 76f
9:20  -   -   -  20 25 mph 1014.2mb 81f 76f
9:10  -   -   -  18 25 mph 1014.2mb 81f 76f
9:00  -   -   -  20 22 mph 1014.1mb - 75f
8:50 7ft 12s 6s 18 22 mph 1014mb 81f 76f
8:40 7ft  -  6s 18 25 mph 1014mb 81f 75f
8:30  -   -   -  18 22 mph 1014mb 81f 75f
8:20  -   -   -  18 22 mph 1014mb 81f 75f
8:10  -   -   -  18 25 mph 1014mb 81f 75f
8:00  -   -   -  18 22 mph 1014mb 81f 75f
7:50 7ft 11s 6s 20 25 mph 1013.9mb 82f 75f
7:40 7ft  -  6s 20 25 mph 1013.9mb 82f 76f
7:30  -   -   -  20 27 mph 1013.8mb 82f 76f
7:20  -   -   -  20 25 mph 1013.6mb 82f 76f
7:10  -   -   -  20 27 mph 1013.4mb 82f 76f
7:00  -   -   -  20 25 mph 1013.2mb 82f 76f
6:50 7ft 9s 6s 20 25 mph 1013.2mb 82f 76f
6:40 7ft  -  6s 20 25 mph 1013.2mb 82f 76f
6:30  -   -   -  20 27 mph 1013.1mb 82f 76f
6:20  -   -   -  20 25 mph 1012.9mb 82f 76f
6:10  -   -   -  18 22 mph 1012.8mb 82f 76f
6:00  -   -   -  18 25 mph 1012.9mb 82f 76f
5:50 7ft  -  6s 18 22 mph 1012.7mb 82f 76f
5:40 7ft 10s  -   -  mph - - -
5:30  -   -   -  18 22 mph 1012.6mb 82f 77f
5:20  -   -   -  18 25 mph 1012.6mb 82f 77f
5:10  -   -   -  18 22 mph 1012.6mb 82f 77f
5:00  -   -   -  18 25 mph 1012.5mb 82f 77f
4:50 7ft 11s 6s 18 25 mph 1012.5mb 82f 77f
4:40 7ft  -  6s 18 22 mph 1012.5mb 82f 77f
4:30  -   -   -  20 25 mph 1012.5mb 82f 77f
4:20  -   -   -  18 22 mph 1012.5mb 81f 77f
4:10  -   -   -  20 25 mph 1012.7mb 81f 77f
4:00  -   -   -  20 25 mph 1012.7mb 81f 77f
3:50 7ft 12s 6s 18 25 mph 1012.6mb 81f 77f
3:40 7ft  -  6s 18 22 mph 1012.7mb 81f 77f
3:30  -   -   -  18 22 mph 1012.6mb 81f 77f
3:20  -   -   -  18 22 mph 1012.8mb 81f 77f
3:10  -   -   -  18 22 mph 1012.9mb 81f 77f
3:00  -   -   -  18 22 mph 1013.1mb 81f 77f
2:50 7ft 11s 6s 18 22 mph 1013.2mb 81f 77f
2:40 7ft  -  6s 20 25 mph 1013.3mb 81f 77f
2:30  -   -   -  20 25 mph 1013.3mb 81f 77f
2:20  -   -   -  18 22 mph 1013.6mb 81f 77f
2:10  -   -   -  20 22 mph 1013.8mb 81f 77f
2:00  -   -   -  20 25 mph 1013.9mb 81f 77f
1:50 8ft 12s 6s 20 25 mph 1014.1mb 81f 77f
1:40  -   -   -  20 25 mph 1014.1mb 81f 77f
1:30  -   -   -  22 25 mph 1014.1mb 81f 77f
1:20  -   -   -  20 25 mph 1014.1mb 81f 77f
1:10  -   -   -  20 25 mph 1014.1mb 81f 77f
1:00  -   -   -  20 25 mph 1014mb 81f 77f
12:50 9ft 13s 7s 20 25 mph 1014.1mb 81f 77f
12:40 9ft  -  7s 20 25 mph 1014.3mb 81f 77f
12:30  -   -   -  20 25 mph 1014.3mb 81f 77f
12:20  -   -   -  20 27 mph 1014.3mb 81f 77f
12:10  -   -   -  20 25 mph 1014.3mb 81f 77f
12:00  -   -   -  22 29 mph 1014.3mb 81f 77f
So 09/17 11:50 9.5ft 13s 7s 22 27 mph 1014.4mb 81f 77f
11:40 9.5ft  -  7s 22 27 mph 1014.4mb 81f 78f
11:30  -   -   -  22 29 mph 1014.4mb 81f 78f
11:20  -   -   -  22 29 mph 1014.5mb 81f 78f
11:10  -   -   -  22 27 mph 1014.6mb 81f 77f
11:00  -   -   -  22 29 mph 1014.5mb 81f 78f
10:50 9ft 13s  -  22 29 mph 1014.4mb 81f 78f
10:40  -   -   -  25 29 mph 1014.4mb 81f 78f
10:30  -   -   -  25 31 mph 1014.6mb 81f 77f
10:20  -   -   -  25 29 mph 1014.7mb 81f 78f
10:10  -   -   -  25 31 mph 1014.7mb 81f 78f
10:00  -   -   -  25 29 mph 1014.8mb 81f 78f
9:50 9ft 13s 7s 25 31 mph 1014.7mb 81f 78f
9:40 9ft  -  7s 25 34 mph 1014.8mb 81f 78f
9:30  -   -   -  27 34 mph 1014.9mb 81f 78f
9:20  -   -   -  22 31 mph 1014.7mb 81f 79f
9:10  -   -   -  22 27 mph 1014.7mb 81f 78f
9:00  -   -   -  25 31 mph 1014.6mb 81f 78f
8:50 9ft 14s 7s 25 34 mph 1014.5mb 81f 78f
8:40 9ft  -  7s 22 29 mph 1014.5mb 81f 78f
8:30  -   -   -  25 36 mph 1014.3mb 81f 78f
8:20  -   -   -  18 27 mph 1014.1mb - 80f
8:10  -   -   -  18 22 mph 1014mb 81f 80f
8:00  -   -   -  18 22 mph 1013.9mb 81f 80f
7:50 8.5ft 13s 7s 18 22 mph 1013.7mb 82f 81f
7:40 8.5ft  -  7s 20 25 mph 1013.6mb 82f 81f
7:30  -   -   -  20 25 mph 1013.8mb 82f 81f
7:20  -   -   -  20 27 mph 1013.8mb 82f 81f
7:10  -   -   -  20 25 mph 1013.9mb 82f 81f
7:00  -   -   -  20 22 mph 1013.8mb 82f 81f
6:50 8ft 13s 7s 18 25 mph 1013.7mb 82f 81f
6:40 8ft  -  7s 18 22 mph 1013.7mb 82f 81f
6:30  -   -   -  18 22 mph 1013.7mb 82f 81f
6:20  -   -   -  18 22 mph 1013.7mb 82f 81f
6:10  -   -   -  18 22 mph 1013.7mb 82f 81f
6:00  -   -   -  18 22 mph 1013.7mb 82f 80f
5:50 8ft 13s 7s 18 22 mph 1013.6mb 82f 80f
5:40  -   -   -  20 25 mph 1013.7mb 82f 80f
5:30  -   -   -  18 22 mph 1013.7mb 82f 80f
5:20  -   -   -  18 22 mph 1013.9mb 82f 80f
5:10  -   -   -  18 22 mph 1014mb 82f 80f
5:00  -   -   -  18 22 mph 1013.9mb 82f 80f
4:50 8ft 13s 7s 18 22 mph 1014mb 82f 80f
4:40 8ft  -  7s 20 25 mph 1014mb - 80f
4:30  -   -   -  20 25 mph 1014mb 82f 79f
4:20  -   -   -  20 25 mph 1014.1mb 82f 79f
4:10  -   -   -  20 25 mph 1014.2mb 82f 79f
4:00  -   -   -  22 27 mph 1014.3mb 82f 79f
3:50 8ft 13s 7s 20 27 mph 1014.3mb 82f 79f
3:40 8ft  -  7s 20 27 mph 1014.3mb 82f 79f
3:30  -   -   -  22 27 mph 1014.3mb 82f 79f
3:20  -   -   -  20 25 mph 1014.3mb 82f 79f
3:10  -   -   -  20 27 mph 1014.4mb 82f 79f
3:00  -   -   -  20 27 mph 1014.5mb 82f 79f
2:50 8ft 12s 7s 20 25 mph 1014.4mb - 78f
2:40 8ft  -  7s 20 25 mph 1014.6mb 82f 79f
2:30  -   -   -  20 25 mph 1014.7mb 82f 79f
2:20  -   -   -  18 22 mph 1014.9mb 81f 79f
2:10  -   -   -  18 25 mph 1015mb 81f 79f
2:00  -   -   -  18 22 mph 1015.1mb 81f 79f
1:50 8ft 14s 7s 16 20 mph 1015.2mb 81f 79f
1:40 8ft  -  7s 16 20 mph 1015.4mb 81f 79f
1:30  -   -   -  18 22 mph 1015.5mb 81f 79f
1:20  -   -   -  18 22 mph 1015.6mb 81f 78f
1:10  -   -   -  18 22 mph 1015.6mb 81f 79f
1:00  -   -   -  16 22 mph 1015.5mb 81f 80f
12:50 8.5ft 13s 7s 11 22 mph 1015.7mb 81f 77f
12:40 8.5ft  -  7s 16 20 mph 1015.9mb 81f 78f
12:30  -   -   -  16 22 mph 1015.9mb 81f 78f
12:20  -   -   -  13 16 mph 1016mb 81f 76f
12:10  -   -   -  16 22 mph 1016mb 81f 75f
12:00  -   -   -  18 22 mph 1016mb - 76f
11:50 8.5ft 12s 7s 20 25 mph 1015.8mb 81f 77f
11:40 8.5ft  -  7s 18 22 mph 1015.5mb 81f 78f
11:30  -   -   -  18 25 mph 1015.7mb 81f 78f
11:20  -   -   -  20 25 mph 1015.7mb 81f 78f
11:10  -   -   -  20 25 mph 1015.9mb 81f 77f
11:00  -   -   -  20 25 mph 1015.8mb 81f 78f
10:50 9ft 12s 7s 20 25 mph 1015.7mb 81f 78f
10:40 9ft  -  7s 20 27 mph 1015.7mb 81f 77f
10:30  -   -   -  22 29 mph 1015.7mb 81f 77f
10:20  -   -   -  22 29 mph 1016mb 81f 77f
10:10  -   -   -  22 27 mph 1016mb 81f 77f
10:00  -   -   -  22 31 mph 1016mb 81f 76f
9:50 8ft  -  7s 27 34 mph 1015.8mb 81f 76f
9:40 8ft 12s 7s  -  mph - - -
9:30  -   -   -  20 27 mph 1015.7mb 81f 79f
9:20  -   -   -  20 25 mph 1015.4mb 81f 79f
9:10  -   -   -  20 25 mph 1015.3mb 81f 79f
9:00  -   -   -  20 25 mph 1015.2mb 81f 80f
8:50 7.5ft 13s 7s 20 25 mph 1015.1mb 81f 80f
8:40 7.5ft  -  7s 20 25 mph 1015.1mb 81f 80f
8:30  -   -   -  20 25 mph 1015.1mb 81f 80f
8:20  -   -   -  18 20 mph 1015.1mb 81f 80f
8:10  -   -   -  18 22 mph 1015.2mb 81f 80f
8:00  -   -   -  20 25 mph 1015.3mb 81f 79f
7:50 8.5ft  -  8s 22 27 mph 1015.2mb 81f -
7:40 8.5ft  -  8s 20 27 mph 1015.1mb 81f 80f
7:30  -   -   -  22 27 mph 1015mb 81f 80f
7:20  -   -   -  20 25 mph 1015mb 81f 80f
7:10  -   -   -  20 27 mph 1015mb 81f 80f
7:00  -   -   -  20 25 mph 1014.9mb 81f 80f
6:50 8ft 13s 7s 20 25 mph 1014.9mb 81f 80f
6:40 8ft  -  7s 20 25 mph 1014.9mb 81f 79f
6:30  -   -   -  18 22 mph 1014.8mb - 78f
6:20  -   -   -  18 22 mph 1014.8mb 82f 78f
6:10  -   -   -  18 22 mph 1014.7mb 82f 77f
6:00  -   -   -  18 22 mph 1014.5mb 82f 77f
5:50 6.5ft 14s 7s 13 20 mph 1014.3mb 82f 77f
5:40 6.5ft  -  7s 13 16 mph 1014.2mb 82f 77f
5:30  -   -   -  13 18 mph 1013.9mb 82f 77f
5:20  -   -   -  16 20 mph 1014mb 82f 77f
5:10  -   -   -  16 20 mph 1013.9mb 82f 77f
5:00  -   -   -  18 22 mph 1014mb 82f 76f
4:50 7ft 14s 6s 20 25 mph 1014.1mb 82f 77f
4:40 7ft  -  6s 20 27 mph 1014.2mb 81f 78f
4:30  -   -   -  22 29 mph 1014mb 81f 79f
4:20  -   -   -  20 27 mph 1013.9mb 81f 80f
4:10  -   -   -  20 25 mph 1013.7mb 81f 80f
4:00  -   -   -  20 25 mph 1013.9mb 81f 80f
3:50 7ft 14s 6s 22 27 mph 1013.9mb 81f 79f
3:40  -   -   -  22 27 mph 1013.7mb 81f 79f
3:30  -   -   -  22 27 mph 1013.8mb 81f 79f
3:20  -   -   -  22 27 mph 1013.8mb 81f 80f
3:10  -   -   -  22 27 mph 1013.9mb 81f 80f
3:00  -   -   -  22 27 mph 1014.1mb 81f 80f
2:50 7.5ft  -  7s 22 27 mph 1014.3mb 81f 79f
2:40 7.5ft 14s  -   -  mph - - -
2:30  -   -   -  20 27 mph 1014.4mb 81f 80f
2:20  -   -   -  20 25 mph 1014.6mb 81f 80f
2:10  -   -   -  20 25 mph 1014.6mb 81f -
2:00  -   -   -  22 25 mph 1014.7mb 81f 80f
1:50 7.5ft 14s 7s 22 27 mph 1014.9mb 81f 80f
1:40 7.5ft  -  7s 22 27 mph 1014.9mb 81f 80f
1:30  -   -   -  20 25 mph 1014.8mb 81f 80f
1:20  -   -   -  20 25 mph 1014.9mb 81f 80f
1:10  -   -   -  20 25 mph 1015mb 81f 80f
1:00  -   -   -  20 25 mph 1015.1mb 81f 80f
12:50 7.5ft 12s 6s 20 25 mph 1015.1mb 81f 80f
12:40 7.5ft  -  6s 20 25 mph 1015.4mb 81f 80f
12:30  -   -   -  20 25 mph 1015.5mb 82f 80f
12:20  -   -   -  20 25 mph 1015.5mb 82f 80f
12:10  -   -   -  20 25 mph 1015.6mb 82f 80f
12:00  -   -   -  20 25 mph 1015.8mb 82f 80f
Sa 09/16 11:50 7ft 13s 6s 20 22 mph 1015.8mb 82f 80f
11:40 7ft  -  6s 20 25 mph 1015.8mb 82f 80f
11:30  -   -   -  20 25 mph 1015.7mb 82f 80f
11:20  -   -   -  18 22 mph 1015.8mb 82f 81f
11:10  -   -   -  18 22 mph 1015.9mb 82f 81f
11:00  -   -   -  18 22 mph 1016mb 82f 81f
10:50 8ft 14s 7s 18 22 mph 1016.2mb 82f 81f
10:40 8ft  -  7s 18 22 mph 1016.1mb 82f 81f
10:30  -   -   -  18 22 mph 1016mb 82f 81f
10:20  -   -   -  18 22 mph 1016.2mb 82f 81f
10:10  -   -   -  18 22 mph 1016.1mb 82f 81f
10:00  -   -   -  16 20 mph 1016.2mb 82f 81f
9:50 8ft 14s 7s 16 20 mph 1016.1mb 82f 81f
9:40 8ft  -  7s 18 20 mph 1016.1mb 82f 81f
9:30  -   -   -  18 20 mph 1016.1mb 82f 81f
9:20  -   -   -  18 22 mph 1016.1mb 82f 81f
9:10  -   -   -  18 22 mph 1016mb 82f 81f
9:00  -   -   -  20 22 mph 1016mb 82f 81f
8:50 7ft 15s 7s 18 22 mph 1015.9mb 82f 81f
8:40  -   -   -  18 22 mph 1015.7mb 82f 81f
8:30  -   -   -  18 20 mph 1015.6mb 82f 81f
8:20  -   -   -  18 20 mph 1015.5mb 82f 81f
8:10  -   -   -  18 22 mph 1015.6mb 82f 81f
8:00  -   -   -  18 22 mph 1015.4mb 82f 81f
7:50 7ft 13s 7s 20 25 mph 1015.5mb 82f 81f
7:40 7ft  -  7s 20 25 mph 1015.5mb 82f 81f
7:30  -   -   -  22 25 mph 1015.4mb 82f 81f
7:20  -   -   -  20 27 mph 1015.4mb 82f 81f
7:10  -   -   -  20 25 mph 1015.3mb 82f 81f
7:00  -   -   -  20 25 mph 1015.4mb 82f 81f
6:50 6ft 14s 6s 20 22 mph 1015.5mb 82f 81f
6:40 6ft  -  6s 20 25 mph 1015.5mb 82f 81f
6:30  -   -   -  20 25 mph 1015.5mb 82f 81f
6:20  -   -   -  20 25 mph 1015.5mb 82f 81f
6:10  -   -   -  20 25 mph 1015.6mb 82f 81f
6:00  -   -   -  20 25 mph 1015.7mb 82f 81f
5:50 6ft 13s 6s 20 25 mph 1015.8mb 82f 81f
5:40  -   -   -  20 25 mph 1015.8mb 82f 81f
5:30  -   -   -  20 25 mph 1015.9mb 82f 81f
5:20  -   -   -  20 25 mph 1016.1mb 82f 81f
5:10  -   -   -  20 25 mph 1016.1mb 82f 81f
5:00  -   -   -  20 22 mph 1016.2mb 82f 81f
4:50 5.5ft 13s 7s 18 22 mph 1016.2mb 82f 81f
4:40 5.5ft  -  7s 18 22 mph 1016.3mb 82f 80f
4:30  -   -   -  16 20 mph 1016.5mb - 80f
4:20  -   -   -  16 20 mph 1016.5mb 82f 80f
4:10  -   -   -  18 20 mph 1016.5mb 82f 80f
4:00  -   -   -  18 22 mph 1016.6mb 82f 80f
3:50 5.5ft 12s 7s 16 20 mph 1016.6mb 82f 80f
3:40 5.5ft  -  7s 16 20 mph 1016.6mb 82f 79f
3:30  -   -   -  16 20 mph 1016.6mb 82f 80f
3:20  -   -   -  16 20 mph 1016.8mb 82f 79f
3:10  -   -   -  16 20 mph 1016.9mb 82f 79f
3:00  -   -   -  16 18 mph 1016.9mb 82f 79f
2:50 5.5ft 13s 7s 16 18 mph 1017mb 82f 79f
2:40 5.5ft  -  7s 16 18 mph 1017.1mb 82f 79f
2:30  -   -   -  13 18 mph 1017.2mb 82f 79f
2:20  -   -   -  16 18 mph 1017.2mb 82f 79f
2:10  -   -   -  16 18 mph 1017.2mb 82f 79f
2:00  -   -   -  13 18 mph 1017.3mb 82f 79f
1:50 6ft 14s 7s 16 18 mph 1017.4mb 82f 80f
1:40 6ft  -  7s 16 20 mph 1017.3mb 82f 80f
1:30  -   -   -  16 20 mph 1017.3mb 82f 80f
1:20  -   -   -  16 18 mph 1017.5mb 82f 80f
1:10  -   -   -  16 20 mph 1017.5mb 82f 80f
1:00  -   -   -  16 18 mph 1017.7mb 82f 79f
12:50 6ft 13s 7s 16 18 mph 1017.7mb 82f 80f
12:40 6ft  -  7s 16 20 mph 1017.7mb 82f 80f
12:30  -   -   -  16 20 mph 1017.8mb 82f -
12:20  -   -   -  16 20 mph 1017.8mb 82f 80f
12:10  -   -   -  16 18 mph 1018mb 82f 80f
12:00  -   -   -  16 20 mph 1018mb 82f 80f
11:50 5ft 14s 7s 16 18 mph 1017.9mb 82f -
11:40 5ft  -  7s 16 18 mph 1018.1mb 82f 79f
11:30  -   -   -  16 18 mph 1018.1mb - 79f
11:20  -   -   -  16 18 mph 1018mb 82f 79f
11:10  -   -   -  16 18 mph 1018.1mb 82f 79f
11:00  -   -   -  16 18 mph 1018.2mb 82f 79f
10:50 5.5ft 14s 8s 16 20 mph 1018.1mb 82f 79f
10:40 5.5ft  -  8s 16 18 mph 1018.2mb 82f 79f
10:30  -   -   -  13 18 mph 1018.4mb 82f 79f
10:20  -   -   -  13 18 mph 1018.4mb 82f 79f
10:10  -   -   -  13 18 mph 1018.4mb 82f 79f
10:00  -   -   -  16 18 mph 1018.4mb 82f 79f
9:50 5ft 14s 8s 13 18 mph 1018.3mb 82f 79f
9:40 5ft  -  8s 13 18 mph 1018.2mb 82f 79f
9:30  -   -   -  13 16 mph 1018.3mb 82f 79f
9:20  -   -   -  13 18 mph 1018.2mb 82f 79f
9:10  -   -   -  13 18 mph 1018.2mb 82f 79f
9:00  -   -   -  13 18 mph 1018mb 82f 79f
8:50 5ft 14s 8s 13 18 mph 1017.9mb - 79f
8:40 5ft  -  8s 13 18 mph 1018mb 82f 79f
8:30  -   -   -  13 16 mph 1018mb 82f 79f
8:20  -   -   -  13 16 mph 1017.9mb 82f 79f
8:10  -   -   -  13 16 mph 1017.9mb 82f 79f
8:00  -   -   -  11 13 mph 1017.9mb 82f 79f
7:50 5ft 12s 9s 11 16 mph 1017.8mb 82f 79f
7:40 5ft  -  9s 11 13 mph 1017.7mb - 79f
7:30  -   -   -  11 16 mph 1017.5mb 82f 79f
7:20  -   -   -  11 16 mph 1017.4mb 82f 79f
7:10  -   -   -  11 16 mph 1017.3mb 82f 79f
7:00  -   -   -  11 16 mph 1017.1mb 82f 79f
6:50 4.5ft 12s 8s 11 16 mph 1017mb 82f 79f
6:40 4.5ft  -  8s 11 16 mph 1017mb 82f 79f
6:30  -   -   -  11 16 mph 1016.9mb 82f 79f
6:20  -   -   -  11 16 mph 1016.8mb 82f 79f
6:10  -   -   -  11 16 mph 1016.7mb 82f 79f
6:00  -   -   -  11 16 mph 1016.7mb 82f 79f
5:50 4.5ft 12s 9s 11 16 mph 1016.7mb 82f 79f
5:40 4.5ft  -  9s 11 16 mph 1016.7mb 82f 79f
5:30  -   -   -  11 13 mph 1016.6mb 82f 79f
5:20  -   -   -  11 13 mph 1016.6mb 82f 79f
5:10  -   -   -  11 13 mph 1016.6mb 82f 79f
5:00  -   -   -  9 11 mph 1016.5mb 82f 79f
4:50 4.5ft 12s 10s 9 11 mph 1016.5mb 82f 79f
4:40 4.5ft  -  10s 9 13 mph 1016.5mb 82f 79f
4:30  -   -   -  9 11 mph 1016.6mb 82f 79f
4:20  -   -   -  9 11 mph 1016.6mb 82f 80f
4:10  -   -   -  9 11 mph 1016.6mb 82f 80f
4:00  -   -   -  9 11 mph 1016.7mb 82f 80f
3:50 4ft 11s 10s 9 11 mph 1016.7mb 82f 80f
3:40  -   -   -  9 11 mph 1016.7mb 82f 80f
3:30  -   -   -  7 11 mph 1016.8mb 82f 80f
3:20  -   -   -  7 9 mph 1016.9mb 82f 80f
3:10  -   -   -  7 9 mph 1017mb 82f 80f
3:00  -   -   -  4 7 mph 1017mb 82f 80f
2:50 3.5ft 11s 9s 4 7 mph 1017.1mb 82f 80f
2:40 3.5ft  -  9s 4 7 mph 1017.2mb 82f 80f
2:30  -   -   -  4 7 mph 1017.2mb 82f 80f
2:20  -   -   -  4 7 mph 1017.3mb 82f 80f
2:10  -   -   -  4 7 mph 1017.2mb 82f 80f
2:00  -   -   -  4 7 mph 1017.4mb 82f 80f
1:50 4ft 11s 9s 4 7 mph 1017.4mb 82f 80f
1:40 4ft  -  9s 4 7 mph 1017.4mb - 80f
1:30  -   -   -  4 7 mph 1017.5mb 82f 80f
1:20  -   -   -  4 7 mph 1017.7mb 82f 80f
1:10  -   -   -  4 4 mph 1017.7mb 82f 80f
1:00  -   -   -  2 4 mph 1017.8mb 82f 80f
12:50 4ft 11s 9s 4 4 mph 1017.9mb 82f 80f
12:40 4ft  -  9s 4 7 mph 1017.9mb 82f 80f
12:30  -   -   -  4 4 mph 1017.9mb - 80f
12:20  -   -   -  4 4 mph 1017.9mb 82f 80f
12:10  -   -   -  4 7 mph 1017.9mb 82f 80f
12:00  -   -   -  4 7 mph 1017.9mb 82f 80f
Fr 09/15 11:50 4ft 11s 8s 4 7 mph 1017.9mb 82f 80f
11:40 4ft  -  8s 2 4 mph 1018mb 82f 80f
11:30  -   -   -  2 4 mph 1017.9mb 82f 80f
11:20  -   -   -  2 4 mph 1018mb 82f 80f
11:10  -   -   -  2 4 mph 1018mb 82f 80f
11:00  -   -   -  2 4 mph 1017.8mb 82f 80f
10:50 3.5ft 11s 9s 2 2 mph 1017.8mb 82f 80f
10:40 3.5ft  -  9s 2 2 mph 1017.7mb 82f 80f
10:30  -   -   -  2 2 mph 1017.7mb 82f 81f
10:20  -   -   -  2 2 mph 1017.6mb 82f 80f
10:10  -   -   -   -  2 mph 1017.6mb 82f 80f
10:00  -   -   -   -  2 mph 1017.5mb 82f 80f
9:50 3.5ft 11s 9s  -  2 mph 1017.5mb 82f 81f
9:40 3.5ft  -  9s 2 2 mph 1017.4mb 82f 81f
9:30  -   -   -  2 2 mph 1017.4mb 82f 81f
9:20  -   -   -   -  2 mph 1017.4mb 82f 81f
9:10  -   -   -   -  2 mph 1017.5mb 82f 81f
9:00  -   -   -   -  2 mph 1017.4mb 82f 81f
8:50 3.5ft 12s 9s  -  2 mph 1017.3mb 82f 81f